(172977) = 2007 RC94 = 2006 DK116

Discovered at Kitt Peak on 2006-02-27 by Spacewatch.

Orbit

Orbit type: Main Belt

Note: WebGL enabled browser required.

epoch2024-03-31.0
epoch JD2460400.5
perihelion date2025-07-29.65321
perihelion JD2460886.15321
argument of perihelion (°)247.11593
ascending node (°)29.34242
inclination (°)4.69396
eccentricity0.1707529
perihelion distance (AU)1.9910888
Tisserand w.r.t. Jupiter3.5
ΔV w.r.t. Earth (km/sec)8.9
semimajor axis (AU)2.4010801
mean anomaly (°)231.34694
mean daily motion (°/day)0.26490730
aphelion distance (AU)2.811
period (years)3.72
P-vector [x]0.11096669
P-vector [y]-0.87919885
P-vector [z]-0.46335275
Q-vector [x]0.99301477
Q-vector [y]0.11690052
Q-vector [z]0.01599809
absolute magnitude17.24
phase slope0.15
uncertainty0
referenceMPEC 2024-C163
observations used344
oppositions14
arc length (days)8032
first opposition used2002
last opposition used2024
residual rms (arc-secs)0.79
perturbers coarse indicatorM-v
perturbers precise indicator003Ek
first observation date used2002-02-16.0
last observation date used2024-02-13.0
computer nameMPCLINUX
JD of orbit computation2456909.156241
perihelion JD uncertainty (days)6.1761E-05
argument of perihelion uncertainty (°)5.9740E-05
ascending node uncertainty (°)5.6032E-05
inclination uncertainty (°)5.2711E-06
eccentricity uncertainty 4.8211E-08
perihelion distance uncertainty (AU)1.1298E-07
Minimum Orbit Intersection Distances (in AU)
for orbit epoch: 2460200.5, reference: E2024-CG3
Mercury1.52878
Venus1.26571
Earth0.98014
Mars0.52445
Jupiter2.31068
Saturn6.25951
Uranus15.8488
Neptune27.1897

Observations

349 total observations over interval: 2002 02 16.35373 – 2024 02 13.273677
These data are available for download (format description).

Date (UT) J2000 RA J2000 Dec Magn Location Ref
2002 02 16.35373 10 42 28.26 +15 00 43.8 20.9   644 – Palomar Mountain/NEAT MPS 218698
2002 02 16.43701 10 42 23.34 +15 01 10.0 20.2   644 – Palomar Mountain/NEAT MPS 218698
2002 02 16.49928 10 42 19.66 +15 01 29.7 20.9   644 – Palomar Mountain/NEAT MPS 218698
2003 07 08.43498 22 50 25.41 -15 16 46.0 19.4   644 – Palomar Mountain/NEAT MPS 218698
2003 07 08.45664 22 50 25.62 -15 16 46.9 19.2   644 – Palomar Mountain/NEAT MPS 218698
2003 07 08.48062 22 50 25.86 -15 16 47.9 19.4   644 – Palomar Mountain/NEAT MPS 218698
2003 07 25.33221 22 49 05.88 -15 54 19.2 19.6   644 – Palomar Mountain/NEAT MPS 218698
2003 07 25.36631 22 49 05.07 -15 54 26.0 19.6   644 – Palomar Mountain/NEAT MPS 218698
2003 07 25.39926 22 49 04.27 -15 54 32.8 19.3   644 – Palomar Mountain/NEAT MPS 218698
2003 08 23.22679 22 27 31.43 -17 52 16.6 19.2   644 – Palomar Mountain/NEAT MPS 218698
2003 08 23.24831 22 27 30.08 -17 52 21.8 18.9   644 – Palomar Mountain/NEAT MPS 218698
2003 08 23.26983 22 27 28.78 -17 52 26.6 18.9   644 – Palomar Mountain/NEAT MPS 218698
2006 02 27.43731 12 58 43.78 -02 20 31.9 20.8 V 691 – Steward Observatory, Kitt Peak-Spacewatch MPS 166293
2006 02 27.45455 12 58 43.30 -02 20 29.8 20.8 V 691 – Steward Observatory, Kitt Peak-Spacewatch MPS 166293
2006 02 27.47180 12 58 42.86 -02 20 27.9 20.7 V 691 – Steward Observatory, Kitt Peak-Spacewatch MPS 166293
2006 03 02.36604 12 57 24.30 -02 14 19.9 20.8 V G96 – Mt. Lemmon Survey MPS 166293
2006 03 02.37339 12 57 24.08 -02 14 18.9 20.8 V G96 – Mt. Lemmon Survey MPS 166293
2006 03 02.38061 12 57 23.83 -02 14 17.8 20.6 V G96 – Mt. Lemmon Survey MPS 166293
2006 03 02.38795 12 57 23.61 -02 14 17.3 20.9 V G96 – Mt. Lemmon Survey MPS 166293
2006 03 03.44152 12 56 51.24 -02 11 46.1   691 – Steward Observatory, Kitt Peak-Spacewatch MPS 166293
2006 03 03.45881 12 56 50.67 -02 11 43.5   691 – Steward Observatory, Kitt Peak-Spacewatch MPS 166293
2006 03 03.47605 12 56 50.09 -02 11 41.0   691 – Steward Observatory, Kitt Peak-Spacewatch MPS 166293
2006 04 07.27085 12 26 50.10 -00 02 49.3 20.5 V G96 – Mt. Lemmon Survey MPS 218698
2006 04 07.27745 12 26 49.70 -00 02 47.6 20.1 V G96 – Mt. Lemmon Survey MPS 218698
2006 04 07.28413 12 26 49.27 -00 02 46.0 20.1 V G96 – Mt. Lemmon Survey MPS 218698
2006 04 07.29071 12 26 48.87 -00 02 44.8 20.2 V G96 – Mt. Lemmon Survey MPS 218698
2007 09 10.43912 01 20 56.17 +05 21 19.7 20.4 V 691 – Steward Observatory, Kitt Peak-Spacewatch MPS 216426
2007 09 10.45670 01 20 55.48 +05 21 17.1 20.5 V 691 – Steward Observatory, Kitt Peak-Spacewatch MPS 216426
2007 09 10.48694 01 20 54.32 +05 21 12.8 20.6 V 691 – Steward Observatory, Kitt Peak-Spacewatch MPS 216426
2007 09 11.45782 01 20 17.14 +05 18 53.3 20.2 V 691 – Steward Observatory, Kitt Peak-Spacewatch MPS 216426
2007 09 11.47540 01 20 16.45 +05 18 50.6 20.6 V 691 – Steward Observatory, Kitt Peak-Spacewatch MPS 216426
2007 09 11.49645 01 20 15.57 +05 18 46.9 20.5 V 691 – Steward Observatory, Kitt Peak-Spacewatch MPS 216426
2007 10 04.32326 01 00 15.58 +04 00 05.8 20.0 V 703 – Catalina Sky Survey MPS 218698
2007 10 04.33088 01 00 15.04 +04 00 03.1 19.9 V 703 – Catalina Sky Survey MPS 218698
2007 10 04.33851 01 00 14.61 +04 00 01.2 20.0 V 703 – Catalina Sky Survey MPS 218698
2007 10 04.34609 01 00 14.11 +04 00 00.6 20.2 V 703 – Catalina Sky Survey MPS 218698
2007 10 06.26342 00 58 17.96 +03 52 26.6 20.1   704 – Lincoln Laboratory ETS, New Mexico MPS 218792
2007 10 06.27463 00 58 17.10 +03 52 24.6 20.5   704 – Lincoln Laboratory ETS, New Mexico MPS 218792
2007 10 06.28542 00 58 16.40 +03 52 20.2 20.2   704 – Lincoln Laboratory ETS, New Mexico MPS 218792
2007 10 06.29623 00 58 15.83 +03 52 17.0 20.4   704 – Lincoln Laboratory ETS, New Mexico MPS 218792
2007 10 08.26298 00 56 16.51 +03 44 34.9 19.8   704 – Lincoln Laboratory ETS, New Mexico MPS 218792
2007 10 08.27398 00 56 15.75 +03 44 31.1 20.5   704 – Lincoln Laboratory ETS, New Mexico MPS 218792
2007 10 08.28504 00 56 15.04 +03 44 28.9 20.1   704 – Lincoln Laboratory ETS, New Mexico MPS 218792
2007 10 08.29603 00 56 14.38 +03 44 27.1 20.1   704 – Lincoln Laboratory ETS, New Mexico MPS 218792
2007 10 08.29802 00 56 14.31 +03 44 26.9 19.3 V G96 – Mt. Lemmon Survey MPS 218698
2007 10 08.30567 00 56 13.84 +03 44 25.0 19.7 V G96 – Mt. Lemmon Survey MPS 218698
2007 10 08.31333 00 56 13.34 +03 44 23.3 19.6 V G96 – Mt. Lemmon Survey MPS 218698
2007 10 08.32100 00 56 12.87 +03 44 21.1 19.1 V G96 – Mt. Lemmon Survey MPS 218698
2007 10 11.22681 00 53 17.95 +03 33 13.2 20.0   704 – Lincoln Laboratory ETS, New Mexico MPS 220572
2007 10 11.23783 00 53 17.25 +03 33 09.9 20.3   704 – Lincoln Laboratory ETS, New Mexico MPS 220572
2007 10 11.24884 00 53 16.58 +03 33 08.0 19.8   704 – Lincoln Laboratory ETS, New Mexico MPS 220572
2007 10 18.25163 00 46 31.83 +03 08 20.9 20.1 V G96 – Mt. Lemmon Survey MPS 220572
2007 10 18.25659 00 46 31.54 +03 08 20.1 20.2 V G96 – Mt. Lemmon Survey MPS 220572
2007 10 18.26154 00 46 31.26 +03 08 19.1 20.2 V G96 – Mt. Lemmon Survey MPS 220572
2007 10 18.26645 00 46 30.97 +03 08 17.9 20.1 V G96 – Mt. Lemmon Survey MPS 220572
2007 12 06.19264 00 30 18.25 +03 14 48.5 20.7 V G96 – Mt. Lemmon Survey MPS 229829
2007 12 06.19934 00 30 18.36 +03 14 49.8 21.2 V G96 – Mt. Lemmon Survey MPS 229829
2007 12 06.20594 00 30 18.43 +03 14 52.0 20.8 V G96 – Mt. Lemmon Survey MPS 229829
2007 12 06.21270 00 30 18.61 +03 14 53.3 22.0 V G96 – Mt. Lemmon Survey MPS 229829
2010 05 11.32667 15 30 18.43 -22 47 18.1 19.0 V G96 – Mt. Lemmon Survey MPS 327226
2010 05 11.33380 15 30 17.96 -22 47 17.8 18.9 V G96 – Mt. Lemmon Survey MPS 327226
2010 05 11.34095 15 30 17.49 -22 47 17.9 19.0 V G96 – Mt. Lemmon Survey MPS 327226
2010 05 17.28369 15 24 06.01 -22 45 36.3 19.3 V 703 – Catalina Sky Survey MPS 328441
2010 05 17.29130 15 24 05.54 -22 45 36.7 19.2 V 703 – Catalina Sky Survey MPS 328441
2010 05 17.29898 15 24 05.07 -22 45 36.3 20.1 V 703 – Catalina Sky Survey MPS 328441
2010 05 17.30788 15 24 04.50 -22 45 35.4 20.1 V 703 – Catalina Sky Survey MPS 328441
2010 06 05.26325 15 06 12.28 -22 27 19.9 20.4 R 926 – Tenagra II Observatory, Nogales MPS 358558
2010 06 05.27251 15 06 11.70 -22 27 19.5 20.2 R 926 – Tenagra II Observatory, Nogales MPS 358558
2010 06 05.28174 15 06 11.32 -22 27 19.4 20.2 R 926 – Tenagra II Observatory, Nogales MPS 358558
2011 09 23.43781 03 26 25.29 +19 28 43.2 21.4 V G96 – Mt. Lemmon Survey MPS 392274
2011 09 23.44306 03 26 25.22 +19 28 43.9 21.0 V G96 – Mt. Lemmon Survey MPS 392274
2011 09 23.44830 03 26 25.15 +19 28 44.4 21.6 V G96 – Mt. Lemmon Survey MPS 392274
2011 09 23.45354 03 26 25.08 +19 28 44.9 21.2 V G96 – Mt. Lemmon Survey MPS 392274
2011 10 18.27823 03 13 17.87 +19 29 27.2 20.8 V 691 – Steward Observatory, Kitt Peak-Spacewatch MPS 395975
2011 10 18.29599 03 13 16.93 +19 29 25.7 21.3 V 691 – Steward Observatory, Kitt Peak-Spacewatch MPS 395975
2011 10 18.31378 03 13 15.93 +19 29 25.1 21.0 V 691 – Steward Observatory, Kitt Peak-Spacewatch MPS 395975
2011 10 24.53754 03 07 30.889 +19 19 26.16 21.2 w F51 – Pan-STARRS 1, Haleakala MPS 397782
2011 10 24.55282 03 07 29.957 +19 19 24.44 21.1 w F51 – Pan-STARRS 1, Haleakala MPS 397782
2011 10 24.56803 03 07 29.034 +19 19 22.63 21.2 w F51 – Pan-STARRS 1, Haleakala MPS 397782
2011 10 24.58322 03 07 28.114 +19 19 20.69 21.0 w F51 – Pan-STARRS 1, Haleakala MPS 397782
2011 10 26.20502 03 05 51.90 +19 16 05.5 21.5 V 691 – Steward Observatory, Kitt Peak-Spacewatch MPS 397782
2011 10 26.22029 03 05 50.97 +19 16 03.3 20.9 V 691 – Steward Observatory, Kitt Peak-Spacewatch MPS 397782
2011 10 26.23556 03 05 50.06 +19 16 01.9 20.8 V 691 – Steward Observatory, Kitt Peak-Spacewatch MPS 397782
2011 11 17.26980 02 42 33.26 +18 14 43.7 20.5 V G96 – Mt. Lemmon Survey MPS 400871
2011 11 17.27668 02 42 32.79 +18 14 42.5 20.1 V G96 – Mt. Lemmon Survey MPS 400871
2011 11 17.28363 02 42 32.40 +18 14 41.0 20.3 V G96 – Mt. Lemmon Survey MPS 400871
2011 11 17.29057 02 42 31.96 +18 14 39.8 20.4 V G96 – Mt. Lemmon Survey MPS 400871
2011 11 30.28390 02 30 57.289 +17 36 23.84 21.3 r F51 – Pan-STARRS 1, Haleakala MPS 403548
2011 11 30.29239 02 30 56.897 +17 36 22.82 21.1 r F51 – Pan-STARRS 1, Haleakala MPS 403548
